When you browse on this site, cookies collect data to enhance your experience and personalize the content and advertising you see.
Visit our Privacy Policy to learn more. By continuing to use the site, you agree to this use of cookies and data.
  • în România
  • Lista ţărilor
  • Pe 7 zile
  • Temperatura apei
  • Meteo pe hartă
  • Widget-uri
  • user-avatar
    Intrare

    Meteo pe oră la Bhubaneswar

    Astăzi, 30 Mai, Sâmbătă

    Timp Temperatura Precipitaţii Vânt Presiune Umiditate
    00:00 +30°C° 0 mm 5 m/s 751 mmHg 71%
    01:00 +30°C° 0 mm 5 m/s 751 mmHg 72%
    02:00 +30°C° 0 mm 4 m/s 751 mmHg 72%
    03:00 +30°C° 0 mm 4 m/s 751 mmHg 73%
    04:00 +29°C° 0 mm 4 m/s 751 mmHg 77%
    05:00 +29°C° 0 mm 3 m/s 751 mmHg 81%
    06:00 +29°C° 0 mm 2 m/s 752 mmHg 84%
    07:00 +32°C° 0 mm 4 m/s 752 mmHg 77%
    08:00 +33°C° 0 mm 6 m/s 752 mmHg 71%
    09:00 +35°C° 0 mm 7 m/s 753 mmHg 64%
    10:00 +36°C° 0 mm 7 m/s 752 mmHg 62%
    11:00 +38°C° 0 mm 7 m/s 752 mmHg 59%
    12:00 +39°C° 0 mm 8 m/s 752 mmHg 56%
    13:00 +39°C° 0 mm 7 m/s 751 mmHg 56%
    14:00 +39°C° 0 mm 7 m/s 750 mmHg 55%
    15:00 +40°C° 0 mm 7 m/s 750 mmHg 54%
    16:00 +38°C° 0 mm 7 m/s 750 mmHg 58%
    17:00 +36°C° 0 mm 7 m/s 750 mmHg 61%
    18:00 +35°C° 0 mm 7 m/s 750 mmHg 64%
    19:00 +35°C° 0 mm 7 m/s 750 mmHg 68%
    20:00 +34°C° 0 mm 7 m/s 751 mmHg 71%
    21:00 +33°C° 0 mm 7 m/s 751 mmHg 74%
    22:00 +33°C° 0 mm 6 m/s 751 mmHg 76%
    23:00 +32°C° 0 mm 6 m/s 752 mmHg 78%

    Mâine, 31 Mai, Duminică

    Timp Temperatura Precipitaţii Vânt Presiune Umiditate
    00:00 +32°C° 0 mm 5 m/s 752 mmHg 80%
    01:00 +32°C° 0 mm 6 m/s 752 mmHg 80%
    02:00 +32°C° 0 mm 6 m/s 752 mmHg 80%
    03:00 +32°C° 0 mm 6 m/s 752 mmHg 80%
    04:00 +32°C° 0 mm 6 m/s 752 mmHg 81%
    05:00 +32°C° 0 mm 6 m/s 752 mmHg 82%
    06:00 +32°C° 0 mm 6 m/s 753 mmHg 83%
    07:00 +33°C° 0 mm 6 m/s 753 mmHg 77%
    08:00 +34°C° 0 mm 6 m/s 753 mmHg 71%
    09:00 +35°C° 0 mm 7 m/s 754 mmHg 65%
    10:00 +36°C° 0 mm 6 m/s 753 mmHg 61%
    11:00 +37°C° 0 mm 5 m/s 753 mmHg 57%
    12:00 +39°C° 0 mm 5 m/s 753 mmHg 54%
    13:00 +40°C° 0 mm 5 m/s 752 mmHg 51%
    14:00 +40°C° 0 mm 5 m/s 751 mmHg 48%
    15:00 +41°C° 0 mm 5 m/s 750 mmHg 46%
    16:00 +39°C° 0 mm 6 m/s 750 mmHg 54%
    17:00 +36°C° 0 mm 7 m/s 750 mmHg 62%
    18:00 +35°C° 0 mm 8 m/s 749 mmHg 69%
    19:00 +34°C° 0 mm 8 m/s 750 mmHg 73%
    20:00 +33°C° 0 mm 8 m/s 751 mmHg 76%
    21:00 +32°C° 0 mm 8 m/s 751 mmHg 79%
    22:00 +32°C° 0 mm 7 m/s 751 mmHg 79%
    23:00 +32°C° 0 mm 7 m/s 752 mmHg 80%

    Poimâine, 1 Iunie, Luni

    Timp Temperatura Precipitaţii Vânt Presiune Umiditate
    00:00 +32°C° 0 mm 7 m/s 752 mmHg 81%
    01:00 +32°C° 0 mm 7 m/s 752 mmHg 81%
    02:00 +32°C° 0 mm 6 m/s 751 mmHg 82%
    03:00 +32°C° 0 mm 6 m/s 751 mmHg 82%
    04:00 +32°C° 0 mm 6 m/s 751 mmHg 83%
    05:00 +32°C° 0 mm 5 m/s 751 mmHg 83%
    06:00 +32°C° 0 mm 5 m/s 752 mmHg 83%
    07:00 +33°C° 0 mm 5 m/s 752 mmHg 77%
    08:00 +34°C° 0 mm 5 m/s 753 mmHg 72%
    09:00 +35°C° 0 mm 5 m/s 753 mmHg 66%
    10:00 +37°C° 0 mm 4 m/s 753 mmHg 58%
    11:00 +40°C° 0 mm 4 m/s 753 mmHg 50%
    12:00 +42°C° 0 mm 4 m/s 753 mmHg 42%
    13:00 +42°C° 0 mm 4 m/s 752 mmHg 43%
    14:00 +42°C° 0 mm 5 m/s 751 mmHg 43%
    15:00 +42°C° 0 mm 6 m/s 750 mmHg 44%
    16:00 +40°C° 0.1 mm 7 m/s 750 mmHg 50%
    17:00 +38°C° 0.1 mm 7 m/s 749 mmHg 57%
    18:00 +35°C° 0.1 mm 7 m/s 749 mmHg 63%
    19:00 +34°C° 0.5 mm 6 m/s 750 mmHg 62%
    20:00 +33°C° 0.5 mm 5 m/s 750 mmHg 61%
    21:00 +33°C° 0.5 mm 4 m/s 751 mmHg 60%
    22:00 +32°C° 0 mm 4 m/s 751 mmHg 61%
    23:00 +31°C° 0 mm 3 m/s 751 mmHg 61%

    2 Iunie, Marţi

    Timp Temperatura Precipitaţii Vânt Presiune Umiditate
    00:00 +31°C° 0 mm 2 m/s 751 mmHg 62%
    01:00 +31°C° 0 mm 3 m/s 751 mmHg 66%
    02:00 +30°C° 0 mm 4 m/s 751 mmHg 70%
    03:00 +30°C° 0 mm 5 m/s 750 mmHg 73%
    04:00 +30°C° 0 mm 5 m/s 750 mmHg 76%
    05:00 +30°C° 0 mm 5 m/s 751 mmHg 79%
    06:00 +30°C° 0 mm 5 m/s 751 mmHg 82%
    07:00 +33°C° 0 mm 5 m/s 751 mmHg 75%
    08:00 +34°C° 0 mm 5 m/s 752 mmHg 68%
    09:00 +35°C° 0 mm 5 m/s 752 mmHg 61%
    10:00 +36°C° 0 mm 5 m/s 752 mmHg 58%
    11:00 +37°C° 0 mm 5 m/s 752 mmHg 55%
    12:00 +39°C° 0 mm 5 m/s 751 mmHg 52%
    13:00 +40°C° 0 mm 4 m/s 751 mmHg 46%
    14:00 +41°C° 0 mm 4 m/s 750 mmHg 40%
    15:00 +43°C° 0 mm 4 m/s 749 mmHg 35%
    16:00 +41°C° 0 mm 5 m/s 748 mmHg 44%
    17:00 +39°C° 0 mm 6 m/s 748 mmHg 53%
    18:00 +36°C° 0 mm 7 m/s 748 mmHg 62%
    19:00 +35°C° 0 mm 7 m/s 748 mmHg 66%
    20:00 +34°C° 0 mm 7 m/s 749 mmHg 71%
    21:00 +33°C° 0 mm 7 m/s 750 mmHg 75%
    22:00 +33°C° 0 mm 7 m/s 750 mmHg 76%
    23:00 +33°C° 0 mm 7 m/s 750 mmHg 77%

    3 Iunie, Miercuri

    Timp Temperatura Precipitaţii Vânt Presiune Umiditate
    00:00 +32°C° 0 mm 6 m/s 750 mmHg 78%
    01:00 +32°C° 0 mm 6 m/s 750 mmHg 80%
    02:00 +32°C° 0 mm 6 m/s 750 mmHg 82%
    03:00 +32°C° 0 mm 6 m/s 749 mmHg 83%
    04:00 +32°C° 0 mm 5 m/s 750 mmHg 84%
    05:00 +32°C° 0 mm 5 m/s 750 mmHg 84%
    06:00 +32°C° 0 mm 4 m/s 750 mmHg 84%
    07:00 +34°C° 0 mm 4 m/s 750 mmHg 75%
    08:00 +35°C° 0 mm 4 m/s 751 mmHg 65%
    09:00 +37°C° 0 mm 5 m/s 751 mmHg 56%
    10:00 +40°C° 0 mm 4 m/s 751 mmHg 49%
    11:00 +41°C° 0 mm 4 m/s 751 mmHg 43%
    12:00 +43°C° 0 mm 4 m/s 750 mmHg 37%
    13:00 +44°C° 0 mm 4 m/s 750 mmHg 35%
    14:00 +44°C° 0 mm 4 m/s 749 mmHg 33%
    15:00 +45°C° 0 mm 4 m/s 748 mmHg 31%
    16:00 +43°C° 0 mm 5 m/s 748 mmHg 40%
    17:00 +40°C° 0 mm 5 m/s 748 mmHg 48%
    18:00 +38°C° 0 mm 6 m/s 748 mmHg 56%
    19:00 +36°C° 0 mm 5 m/s 748 mmHg 61%
    20:00 +35°C° 0 mm 5 m/s 749 mmHg 65%
    21:00 +34°C° 0 mm 4 m/s 750 mmHg 69%
    22:00 +34°C° 0 mm 5 m/s 750 mmHg 70%
    23:00 +34°C° 0 mm 6 m/s 750 mmHg 72%

    4 Iunie, Joi

    Timp Temperatura Precipitaţii Vânt Presiune Umiditate
    00:00 +33°C° 0 mm 7 m/s 750 mmHg 73%
    01:00 +33°C° 0 mm 7 m/s 750 mmHg 74%
    02:00 +33°C° 0 mm 6 m/s 750 mmHg 75%
    03:00 +33°C° 0 mm 6 m/s 749 mmHg 75%
    04:00 +33°C° 0 mm 5 m/s 749 mmHg 76%
    05:00 +33°C° 0 mm 4 m/s 750 mmHg 76%
    06:00 +33°C° 0 mm 4 m/s 750 mmHg 76%
    07:00 +34°C° 0 mm 4 m/s 750 mmHg 69%
    08:00 +36°C° 0 mm 4 m/s 751 mmHg 62%
    09:00 +37°C° 0 mm 4 m/s 751 mmHg 55%
    10:00 +40°C° 0 mm 4 m/s 751 mmHg 46%
    11:00 +42°C° 0 mm 3 m/s 750 mmHg 38%
    12:00 +45°C° 0 mm 3 m/s 750 mmHg 29%
    13:00 +45°C° 0 mm 3 m/s 749 mmHg 27%
    14:00 +46°C° 0 mm 3 m/s 749 mmHg 26%
    15:00 +46°C° 0 mm 3 m/s 748 mmHg 25%
    16:00 +44°C° 0 mm 4 m/s 748 mmHg 33%
    17:00 +42°C° 0 mm 5 m/s 748 mmHg 41%
    18:00 +39°C° 0 mm 6 m/s 747 mmHg 49%
    19:00 +37°C° 0 mm 5 m/s 748 mmHg 53%
    20:00 +36°C° 0 mm 5 m/s 749 mmHg 56%
    21:00 +35°C° 0 mm 4 m/s 750 mmHg 59%
    22:00 +35°C° 0 mm 5 m/s 750 mmHg 61%
    23:00 +35°C° 0 mm 5 m/s 750 mmHg 62%
    Arată mai mult